Temperature
25 24 24 23 22 20 21 22 22 22 21 21 21 20 19 19 19 18 18 18 18 18 18 18 18 18 18 18 18 18 18 18 18 18 18 18 18 18 18 18 18 18 18 18 18 18 18 18 18
25 25 24 23 20 20 21 22 22 21 21 22 21 20 19 18 18 19 18 18 18 18 18 18 18 18 18 18 18 18 18 18 18 18 18 18 18 18 18 18 18 18 18 18 18 18 18 18 18
25 25 24 20 20 20 22 22 22 22 22 22 21 20 19 18 19 19 19 19 19 18 18 18 18 18 18 18 18 18 18 18 18 18 18 18 18 18 18 18 18 18 18 18 18 18 18 18 18
25 25 24 21 22 22 22 22 22 22 22 22 21 20 19 19 19 19 19 19 19 19 19 18 19 19 19 18 18 18 18 18 18 18 18 18 18 18 18 18 18 18 18 18 18 18 18 18 18
26 25 21 21 23 23 23 23 23 22 22 21 20 19 19 19 20 20 19 19 19 19 19 19 19 19 19 18 18 18 18 18 18 18 18 18 18 18 18 18 18 18 18 18 18 18 18 17 17
26 22 21 22 23 24 23 23 22 21 21 21 20 19 18 19 20 20 19 19 19 19 19 19 19 19 19 18 18 18 18 18 18 18 18 18 18 18 18 18 18 18 18 18 17 17 17 17 17
24 21 22 23 23 23 24 23 22 21 21 21 20 18 18 19 20 20 19 19 19 19 19 19 19 19 19 19 18 18 18 18 18 18 18 18 18 18 18 18 18 18 18 18 17 17 17 17 17
26 21 23 22 23 24 24 23 23 22 22 21 21 19 19 19 19 19 19 19 19 19 19 19 19 19 19 19 18 18 18 18 18 18 18 18 18 18 18 18 18 18 18 18 18 17 17 17 17
27 21 22 23 23 23 24 23 23 23 22 22 22 21 21 20 19 19 19 19 19 19 19 19 19 19 19 19 18 18 18 18 18 18 18 18 18 18 18 18 18 18 18 17 17 17 17 17 17
26 22 24 24 24 23 24 23 23 23 22 21 21 21 20 20 19 20 20 20 19 19 19 19 19 19 19 19 19 18 18 18 18 18 18 18 18 18 18 18 18 18 18 18 18 17 17 17 17
25 24 25 25 26 25 24 24 24 22 21 21 21 21 20 20 20 20 20 20 20 19 19 19 19 19 19 19 19 18 18 18 18 18 18 18 18 18 18 18 18 18 18 18 18 18 17 18 18
25 25 26 26 26 25 24 24 23 23 23 23 23 22 21 20 20 20 20 20 20 19 19 19 19 19 19 19 19 18 18 18 18 18 18 18 18 18 18 18 18 18 18 18 18 18 18 18 18
26 25 26 26 26 25 24 24 23 23 23 23 22 22 21 21 21 20 20 20 20 20 19 19 19 19 19 19 19 18 18 18 18 18 18 18 18 18 18 18 18 18 18 18 18 18 18 18 18
25 25 25 26 26 25 24 23 23 22 23 22 22 21 21 21 21 21 20 20 20 20 19 19 19 19 19 19 19 18 18 18 18 18 18 18 18 18 18 18 18 18 18 18 18 18 18 18 18
26 25 25 25 25 25 24 23 22 23 22 22 21 21 21 21 21 21 21 21 20 20 20 19 19 19 19 19 19 18 18 18 18 18 18 18 18 18 18 18 18 18 18 18 18 18 18 18 18
25 24 24 25 24 24 24 23 22 23 22 21 21 21 21 21 21 21 21 21 21 20 20 20 19 19 19 19 19 18 18 18 18 18 18 18 18 18 18 18 18 18 18 18 18 18 18 18 18
23 24 24 25 24 24 23 23 22 23 22 21 21 21 21 21 21 22 21 21 21 21 20 20 20 19 19 19 19 18 18 18 18 18 18 18 18 18 18 18 18 18 18 18 18 18 18 18 18
24 24 24 24 24 24 23 22 22 22 22 22 22 22 22 22 22 22 22 21 21 21 20 20 20 20 19 19 19 18 18 18 18 18 18 18 18 18 18 18 18 18 18 18 18 18 18 18 18
25 24 24 24 24 23 23 22 22 22 22 22 22 22 22 23 23 22 22 22 21 21 21 20 20 20 19 19 19 19 19 18 18 18 18 18 18 18 18 18 18 18 18 18 18 18 17 17 17
25 24 24 24 24 24 23 22 22 22 22 22 22 22 22 23 23 22 22 22 21 21 21 21 20 20 19 19 19 19 19 18 18 18 18 18 18 18 18 18 18 18 18 17 18 17 17 17 17
25 24 24 24 24 23 23 23 22 22 22 22 22 23 23 23 23 23 22 22 22 21 21 21 20 20 19 19 19 19 18 18 18 18 18 18 18 18 18 18 18 17 17 17 17 17 17 17 17
25 25 25 24 23 21 23 22 22 21 21 21 22 22 23 23 23 23 23 22 22 22 22 21 21 20 20 19 19 19 19 19 19 18 18 18 18 18 18 18 17 17 17 17 17 17 17 17 17
25 24 24 23 22 21 22 22 21 21 21 21 22 22 23 24 24 24 23 23 23 22 22 21 21 20 20 19 19 19 19 19 18 18 18 18 18 18 18 18 17 17 17 17 17 17 17 17 17
24 22 21 19 20 21 22 21 21 20 21 22 22 23 23 24 24 24 24 23 23 22 22 22 21 21 20 20 19 19 19 19 19 18 18 18 18 18 18 18 17 17 17 17 17 17 17 17 17
23 21 21 21 20 20 20 21 21 22 22 22 22 23 24 24 24 24 24 23 23 23 22 22 21 21 20 20 20 19 19 19 19 18 18 18 18 18 18 18 18 18 17 17 17 17 17 17 17
22 22 21 22 21 20 20 21 22 22 23 24 24 24 24 24 24 24 24 24 24 23 23 22 22 21 21 20 20 19 19 19 19 18 18 18 18 18 18 17 17 17 17 17 17 17 17 17 17
22 21 20 19 20 20 20 21 21 22 22 22 23 23 23 24 24 25 24 24 24 23 23 23 22 22 21 21 20 20 19 19 19 18 18 18 18 18 17 17 17 17 17 17 17 17 17 16 16
22 19 18 19 20 21 22 22 22 23 23 22 21 22 23 24 24 24 24 24 24 24 23 23 22 22 21 21 20 20 19 19 19 18 18 18 18 17 17 17 17 17 17 16 16 16 16 16 16
21 20 17 17 19 20 21 22 22 22 22 22 21 23 23 24 24 24 24 24 24 23 23 23 22 22 21 21 20 20 20 19 19 18 18 18 17 17 17 17 17 17 16 16 16 16 16 16 16
22 20 18 20 19 18 20 21 23 21 21 22 22 23 23 24 24 24 24 24 23 23 23 22 22 22 21 21 20 20 19 19 19 18 18 18 17 17 17 16 16 16 16 16 16 16 16 15 15
Wind_Speed
5 5 3 2 6 7 5 4 2 3 4 4 8 8 7 5 3 4 1 4 5 3 4 7 10 11 12 13 14 14 15 15 16 15 15 16 15 15 16 15 15 15 16 16 16 16 17 17 17
4 4 2 4 6 5 4 3 4 4 5 6 7 8 7 5 4 6 3 4 5 5 5 7 10 10 11 12 13 13 14 14 14 14 14 15 15 14 14 14 14 15 15 15 16 16 16 16 16
4 2 4 5 5 4 3 2 6 6 4 3 5 6 5 4 4 4 4 7 5 5 5 7 10 10 10 11 12 12 13 13 13 13 13 13 13 13 13 14 14 14 15 15 15 16 16 16 15
2 3 5 6 5 1 4 5 7 6 5 6 5 6 5 4 4 5 8 7 6 4 5 7 9 9 9 10 11 11 11 11 12 12 12 12 12 12 13 13 13 14 14 14 14 15 15 14 14
3 5 7 5 4 3 4 6 5 5 4 5 6 6 4 4 8 10 9 7 6 4 4 6 8 9 9 9 9 10 10 10 10 10 11 11 11 11 12 11 12 13 13 13 13 13 13 12 12
4 5 6 3 3 3 4 4 6 7 7 6 5 5 3 3 7 8 8 6 5 4 4 4 7 8 8 8 8 8 9 9 9 9 9 10 10 10 10 10 10 11 11 11 11 11 11 10 10
5 5 4 3 3 2 4 4 4 6 6 4 4 5 3 3 5 7 7 6 5 4 3 3 4 5 6 6 6 7 7 7 7 8 8 9 9 9 9 9 9 9 9 9 9 9 9 8 8
5 5 4 2 4 3 5 4 4 6 6 6 5 7 6 5 8 8 7 6 4 3 3 2 3 3 3 3 4 5 5 5 6 6 7 7 7 7 7 7 7 7 8 8 8 7 7 6 6
4 5 3 5 5 4 6 5 4 4 7 4 4 5 7 13 11 8 6 4 2 2 1 1 2 2 2 2 2 3 3 3 3 4 5 5 5 5 5 5 5 5 5 6 5 5 5 5 4
5 4 5 5 6 6 7 6 6 6 5 4 7 8 12 13 11 9 8 7 5 4 3 1 1 1 1 1 2 2 2 2 2 2 3 3 3 3 3 2 2 2 3 3 3 3 3 2 2
4 4 3 2 5 8 8 6 4 9 4 6 11 14 15 12 9 8 7 6 6 5 4 3 2 2 1 0 0 0 1 1 1 1 1 2 2 2 2 2 2 2 1 1 1 1 1 1 1
3 1 3 3 6 7 8 6 5 4 5 8 13 17 15 13 11 10 9 7 5 4 5 4 3 2 2 2 1 1 0 0 0 1 1 0 1 1 1 1 2 1 1 0 0 0 0 1 1
3 1 2 5 8 8 8 6 6 3 7 12 14 14 14 13 10 8 7 6 5 5 5 5 4 4 3 2 1 1 1 1 2 1 2 2 1 1 1 1 2 2 1 1 1 1 1 1 2
2 5 6 6 7 5 8 4 5 4 11 13 13 12 12 12 11 8 7 7 7 7 6 5 4 4 4 3 2 1 1 2 1 2 3 3 3 2 1 1 1 2 2 2 2 2 1 1 1
5 7 7 5 5 4 8 4 1 7 11 12 11 11 10 10 9 10 9 9 8 7 6 6 6 4 4 4 3 2 2 2 1 2 2 3 3 3 2 1 1 2 2 2 1 1 1 1 1
6 6 3 2 3 3 6 3 3 8 12 11 10 10 9 9 9 9 8 7 7 7 7 6 6 5 4 3 2 1 1 1 1 1 1 2 2 2 2 1 1 2 1 1 1 1 1 1 1
6 3 1 1 1 3 4 3 4 8 11 10 10 10 9 8 7 7 7 8 8 8 7 6 5 5 4 3 2 1 1 0 1 1 0 0 0 1 2 1 2 2 1 1 2 1 2 1 1
3 3 2 3 3 4 3 3 5 8 10 10 9 9 9 9 9 8 7 7 7 7 6 6 5 4 4 2 1 1 1 1 1 1 1 0 1 0 1 1 1 1 1 1 1 1 1 1 1
6 5 3 3 2 4 4 4 6 8 8 9 9 9 9 9 7 6 7 7 6 6 6 6 6 4 4 2 1 1 0 0 1 1 1 1 1 1 1 0 1 0 1 1 1 1 1 1 1
5 4 2 1 2 3 3 2 4 8 10 10 11 10 9 8 6 7 7 7 7 7 7 6 6 5 4 3 2 2 1 0 0 1 2 2 2 1 0 1 0 0 0 1 1 1 1 1 2
3 6 5 4 3 4 3 3 2 4 5 6 7 8 9 11 11 10 9 9 8 8 9 8 6 6 5 4 3 2 2 2 2 2 2 2 2 2 1 0 0 1 1 1 2 2 2 2 1
3 5 6 6 6 1 2 2 6 5 6 8 9 9 10 10 10 10 10 9 10 10 8 7 6 5 5 5 4 4 3 2 1 0 1 2 3 3 2 1 0 0 1 1 2 1 2 2 2
4 4 6 5 5 3 2 2 7 2 7 11 12 12 11 11 11 12 12 12 10 9 8 7 6 5 5 5 6 5 3 2 1 1 1 1 2 3 3 2 1 1 1 1 1 1 1 2 2
7 8 9 7 5 1 2 3 7 5 9 7 10 11 11 11 11 10 9 8 8 7 7 7 7 6 5 6 6 6 5 4 2 1 0 1 2 2 3 2 2 1 1 1 1 1 1 1 2
7 7 5 4 3 5 2 3 9 8 8 9 9 10 11 10 10 9 10 10 9 9 9 8 8 7 6 6 6 5 5 4 4 2 1 0 1 1 2 2 1 1 1 1 1 1 1 1 1
6 10 9 6 6 4 2 6 8 6 5 5 6 7 8 9 10 10 11 10 10 10 9 9 9 8 7 6 5 4 4 3 2 2 2 1 1 1 1 2 2 2 2 2 1 1 1 1 0
8 5 7 8 4 1 5 7 9 2 1 1 4 6 8 9 10 10 10 10 10 10 10 10 10 8 7 7 6 4 4 4 3 2 2 1 1 0 1 2 2 3 3 3 2 2 2 2 1
6 10 7 7 6 3 5 5 5 5 4 2 4 6 8 8 9 9 9 9 9 9 8 8 9 9 7 7 6 5 4 4 3 3 2 2 1 1 2 2 2 3 3 4 3 3 3 3 3
5 6 6 6 6 7 3 8 7 8 6 6 6 6 7 8 9 9 9 9 8 8 8 9 8 7 7 6 6 5 4 4 4 3 2 2 2 2 2 2 3 3 4 3 4 3 4 4 4
5 8 8 7 4 5 5 8 5 6 5 5 5 4 5 7 8 8 8 8 8 9 9 9 8 8 7 7 6 6 5 5 4 3 3 3 3 3 3 3 4 4 4 4 4 4 4 4 4
Wind_Direction
168 152 144 93 56 52 39 10 56 72 56 51 73 77 83 63 79 125 121 123 117 106 106 108 102 96 90 86 84 83 87 90 91 91 95 97 97 98 101 100 103 105 104 104 105 105 106 106 106
155 157 107 60 75 66 15 12 77 83 131 126 78 72 70 63 66 103 119 125 113 113 109 111 106 100 94 90 89 87 88 89 89 90 94 97 95 96 99 101 101 103 104 105 107 107 107 107 108
174 153 77 66 78 125 138 114 117 110 113 85 76 64 73 94 115 130 147 127 104 102 108 118 111 106 100 95 92 91 90 91 92 93 95 98 97 97 100 102 103 104 106 106 106 107 108 107 108
127 56 54 64 63 128 151 153 137 122 69 55 85 68 62 85 129 131 128 122 110 96 109 122 118 113 106 101 97 96 94 94 94 94 94 97 96 96 102 102 102 105 105 106 107 108 108 108 109
68 74 59 50 42 61 111 140 126 96 74 66 79 82 50 33 101 117 123 121 120 108 111 123 120 117 113 109 105 104 101 99 97 96 95 95 95 95 100 102 101 103 104 107 108 108 110 112 114
62 67 76 73 64 74 113 116 98 94 92 88 82 84 57 99 114 126 122 115 113 111 104 117 122 118 115 113 110 107 106 103 102 100 98 96 96 97 100 103 105 106 106 109 112 112 113 113 116
97 86 106 121 111 116 144 106 109 117 110 110 106 93 96 131 124 117 108 103 95 96 92 82 99 114 118 116 114 109 105 100 99 100 100 99 99 99 101 103 106 109 111 112 114 113 114 113 117
117 96 87 109 138 156 138 107 110 119 111 121 115 131 165 173 129 109 97 91 89 84 78 74 74 79 90 106 115 113 107 101 96 99 102 99 97 95 97 99 105 111 116 118 117 116 115 113 116
93 80 136 177 169 167 142 124 130 94 117 128 109 138 150 135 127 118 112 105 117 146 86 85 94 96 99 117 131 120 113 105 95 91 98 89 76 73 79 94 105 114 124 130 127 125 123 111 108
82 117 194 190 174 154 143 136 141 117 119 98 85 94 121 134 141 148 157 168 182 195 211 215 192 171 157 154 96 83 79 72 65 57 61 69 66 62 66 65 89 118 133 146 145 147 136 116 103
112 153 186 163 150 134 131 134 125 129 159 170 149 142 142 146 154 168 178 183 191 194 198 202 215 213 205 252 50 54 74 79 60 46 57 56 41 25 19 4 350 353 13 112 113 95 126 149 162
111 124 143 141 123 126 136 133 118 156 192 157 147 148 151 159 172 182 185 188 182 184 204 205 202 204 216 215 255 250 246 199 250 247 194 132 7 345 333 317 301 298 309 123 160 182 247 237 229
83 81 71 103 101 109 105 112 121 127 118 123 134 146 160 170 180 187 186 182 174 191 210 210 200 197 202 202 238 213 215 216 228 238 229 206 210 250 277 275 273 270 262 238 216 228 255 255 261
90 81 78 80 89 102 111 98 100 137 129 132 146 160 172 179 180 180 183 185 187 194 201 199 198 196 189 188 199 217 216 231 240 240 242 221 209 216 230 257 263 265 250 239 227 230 246 262 257
80 73 53 51 74 109 106 65 144 150 140 147 160 169 178 185 184 190 192 191 191 191 191 192 196 187 183 186 189 190 207 206 245 262 248 227 213 209 203 227 264 264 239 217 212 235 248 254 243
57 63 65 325 85 109 116 178 195 152 151 163 172 176 185 195 198 200 193 187 183 181 186 194 192 179 185 180 171 173 170 177 249 269 267 249 230 212 188 207 263 266 220 189 187 203 235 255 249
43 100 187 267 156 122 126 193 183 162 164 177 185 186 189 198 205 203 192 185 182 183 182 184 185 175 178 169 158 140 107 85 298 264 229 227 95 193 180 208 260 249 203 199 217 195 190 218 241
177 172 187 217 207 133 148 194 174 174 177 187 193 196 193 200 209 198 188 185 180 178 177 179 179 173 154 134 110 71 57 34 18 1 309 23 62 196 169 211 270 225 184 217 208 202 197 211 227
156 162 181 218 176 134 171 192 188 181 185 194 199 201 201 208 205 187 183 179 172 174 178 182 176 173 149 138 142 144 164 20 9 351 356 18 34 45 97 30 317 228 206 228 202 178 179 196 153
138 144 156 57 80 124 143 224 212 195 202 200 200 203 201 204 201 190 186 184 183 185 188 188 182 177 174 165 157 151 135 134 295 355 13 16 13 350 123 158 278 242 239 258 206 180 181 206 173
157 174 177 160 88 57 81 338 238 225 218 216 212 207 200 203 202 197 192 196 192 192 195 194 189 184 181 164 124 98 76 51 31 8 358 353 351 345 342 135 236 247 223 250 246 204 198 218 220
216 210 162 142 114 36 104 262 272 226 228 225 220 210 206 206 202 198 196 194 200 202 195 188 184 182 176 164 156 158 157 171 205 211 311 346 6 359 355 13 155 244 240 266 268 224 216 199 216
174 97 102 102 108 69 40 161 284 222 236 237 225 216 211 206 200 198 198 197 200 192 185 182 174 177 175 169 166 160 160 166 148 112 3 353 358 0 0 13 24 354 312 296 295 278 221 207 202
119 74 58 50 67 31 237 177 273 229 222 236 224 214 208 203 200 197 195 185 188 181 175 171 169 177 173 167 163 165 168 162 145 129 32 352 351 356 2 8 1 343 331 318 302 293 266 224 211
101 95 51 21 15 250 263 207 250 247 232 223 220 209 202 195 192 186 183 183 184 180 177 169 167 173 169 164 167 172 173 167 174 181 174 122 353 346 343 356 347 335 327 337 347 355 347 305 233
161 138 153 178 205 261 283 235 256 266 262 224 207 196 189 184 184 186 189 188 186 182 174 168 170 173 169 168 172 169 166 166 172 174 162 163 203 266 341 15 17 8 7 10 23 23 2 29 22
133 146 148 127 134 136 276 284 300 297 315 159 169 170 183 184 183 185 183 182 180 176 175 173 170 169 171 173 166 161 162 162 165 159 148 147 175 132 38 41 33 24 29 31 47 46 29 42 39
136 139 107 121 142 208 284 275 253 262 243 207 178 182 188 183 181 178 176 178 176 172 168 162 165 169 168 169 171 168 162 162 159 142 140 136 116 81 66 56 47 42 39 38 49 49 41 56 43
108 98 104 111 143 152 220 266 228 224 217 208 207 197 188 181 180 178 173 171 164 158 159 160 161 159 159 162 156 151 149 149 143 138 135 120 89 73 69 66 65 61 51 47 57 51 52 62 52
155 156 143 146 182 166 171 261 270 220 214 203 210 197 181 175 172 168 163 157 157 161 162 162 162 162 162 156 147 148 142 133 128 123 111 100 87 72 74 73 72 68 60 58 64 58 55 65 60
Height
1485 1485 1486 1488 1492 1507 1514 1509 1504 1505 1507 1507 1507 1508 1511 1515 1518 1524 1521 1520 1521 1522 1523 1523 1523 1523 1523 1523 1522 1521 1521 1521 1521 1522 1522 1523 1523 1523 1524 1525 1526 1527 1529 1530 1531 1532 1534 1535 1537
1486 1486 1489 1490 1504 1522 1519 1509 1507 1507 1508 1508 1509 1511 1513 1516 1517 1519 1520 1522 1523 1524 1525 1525 1526 1526 1526 1526 1526 1525 1525 1525 1525 1525 1526 1526 1527 1527 1528 1528 1529 1530 1531 1533 1534 1536 1537 1538 1540
1487 1488 1490 1495 1510 1520 1517 1509 1508 1508 1509 1509 1511 1513 1516 1518 1519 1521 1522 1523 1525 1526 1527 1528 1528 1529 1529 1529 1529 1529 1528 1528 1528 1529 1529 1529 1530 1531 1531 1532 1532 1533 1534 1536 1537 1538 1540 1541 1542
1488 1490 1493 1503 1512 1510 1508 1508 1508 1509 1510 1511 1513 1516 1519 1522 1522 1523 1524 1525 1527 1528 1529 1530 1531 1531 1531 1532 1532 1532 1532 1532 1532 1532 1532 1532 1533 1533 1533 1534 1535 1536 1538 1539 1540 1541 1542 1544 1545
1490 1492 1503 1513 1511 1508 1506 1508 1509 1510 1512 1514 1515 1519 1522 1524 1524 1525 1526 1528 1529 1531 1531 1532 1533 1533 1534 1534 1534 1535 1535 1535 1535 1535 1535 1535 1536 1536 1537 1537 1539 1540 1541 1542 1543 1544 1545 1547 1548
1491 1495 1514 1521 1514 1509 1509 1509 1511 1512 1514 1517 1518 1521 1525 1526 1526 1527 1529 1530 1532 1533 1534 1535 1535 1536 1536 1537 1537 1537 1538 1538 1538 1538 1538 1538 1539 1539 1540 1541 1541 1542 1543 1544 1546 1547 1548 1549 1550
1493 1502 1515 1516 1515 1513 1511 1511 1513 1514 1516 1518 1520 1523 1526 1528 1529 1530 1531 1533 1534 1535 1536 1537 1537 1538 1538 1539 1539 1540 1540 1541 1541 1541 1541 1541 1541 1542 1543 1543 1544 1545 1546 1547 1548 1549 1550 1552 1553
1493 1501 1513 1516 1516 1514 1511 1512 1515 1515 1518 1520 1521 1523 1526 1529 1530 1532 1533 1535 1536 1537 1538 1539 1539 1540 1541 1541 1542 1542 1543 1543 1543 1543 1544 1544 1544 1545 1545 1546 1547 1548 1548 1549 1550 1551 1553 1553 1554
1494 1507 1517 1514 1514 1511 1510 1513 1516 1517 1518 1521 1522 1523 1526 1529 1531 1533 1534 1536 1537 1539 1540 1541 1541 1542 1543 1543 1544 1544 1545 1545 1545 1546 1546 1546 1547 1547 1548 1548 1549 1550 1550 1551 1552 1553 1554 1555 1556
1495 1510 1509 1504 1505 1506 1509 1512 1515 1518 1520 1521 1523 1525 1528 1530 1532 1534 1536 1537 1538 1540 1541 1542 1543 1544 1544 1545 1546 1546 1547 1547 1548 1548 1548 1549 1549 1549 1550 1550 1551 1552 1552 1553 1554 1555 1556 1557 1557
1496 1503 1501 1501 1502 1505 1509 1513 1515 1517 1520 1520 1522 1525 1528 1531 1534 1536 1537 1539 1540 1541 1543 1544 1545 1546 1546 1547 1548 1548 1549 1549 1549 1550 1550 1551 1551 1551 1552 1552 1553 1553 1554 1555 1555 1556 1557 1558 1558
1497 1499 1499 1501 1503 1506 1510 1513 1516 1518 1519 1520 1523 1525 1528 1531 1534 1536 1538 1540 1541 1543 1544 1545 1546 1547 1548 1549 1549 1550 1550 1551 1551 1551 1551 1552 1552 1553 1553 1554 1554 1555 1555 1556 1556 1557 1558 1558 1559
1498 1500 1501 1502 1504 1508 1511 1514 1516 1518 1519 1522 1525 1528 1530 1532 1535 1538 1540 1541 1543 1544 1545 1546 1547 1548 1549 1550 1550 1551 1551 1552 1552 1552 1552 1553 1553 1554 1554 1554 1555 1555 1556 1556 1557 1557 1558 1559 1559
1499 1501 1503 1505 1507 1510 1513 1516 1518 1520 1521 1524 1526 1529 1531 1533 1536 1538 1540 1541 1543 1544 1546 1547 1548 1549 1550 1551 1551 1552 1552 1552 1553 1553 1553 1554 1554 1554 1555 1555 1555 1556 1556 1556 1557 1557 1558 1559 1559
1500 1504 1507 1508 1509 1512 1514 1521 1520 1521 1523 1525 1528 1530 1532 1534 1536 1538 1540 1541 1543 1545 1546 1547 1549 1549 1550 1551 1552 1552 1553 1553 1553 1553 1554 1554 1554 1555 1555 1555 1555 1556 1556 1556 1557 1557 1557 1558 1559
1504 1512 1519 1513 1511 1513 1519 1528 1521 1522 1524 1526 1528 1531 1533 1535 1536 1538 1540 1542 1544 1545 1546 1548 1549 1550 1551 1551 1552 1553 1553 1553 1553 1553 1553 1554 1554 1554 1554 1554 1555 1555 1555 1556 1556 1556 1556 1557 1557
1516 1524 1523 1517 1512 1514 1518 1524 1520 1522 1523 1526 1528 1530 1532 1534 1536 1538 1540 1542 1543 1545 1546 1547 1549 1550 1551 1551 1552 1553 1553 1553 1553 1553 1553 1553 1553 1553 1553 1553 1553 1554 1554 1554 1555 1555 1555 1556 1556
1522 1523 1522 1521 1513 1514 1519 1521 1520 1521 1523 1524 1527 1529 1531 1533 1535 1537 1539 1541 1543 1545 1546 1547 1548 1549 1550 1551 1552 1552 1553 1553 1553 1553 1553 1553 1553 1553 1553 1553 1552 1553 1553 1553 1553 1554 1554 1554 1554
1510 1517 1520 1517 1511 1516 1520 1521 1520 1520 1522 1524 1525 1527 1529 1531 1533 1536 1538 1540 1542 1543 1545 1546 1547 1549 1550 1550 1551 1552 1552 1552 1552 1552 1552 1552 1552 1552 1552 1552 1552 1552 1552 1552 1552 1552 1552 1552 1552
1510 1517 1519 1516 1512 1516 1521 1522 1518 1519 1519 1520 1522 1524 1526 1529 1532 1534 1537 1539 1540 1542 1544 1545 1546 1548 1549 1550 1551 1552 1552 1552 1552 1552 1552 1552 1552 1552 1552 1551 1551 1551 1551 1550 1550 1550 1550 1550 1550
1510 1514 1516 1518 1516 1517 1521 1526 1521 1518 1518 1519 1520 1522 1524 1526 1528 1531 1534 1537 1539 1540 1542 1544 1546 1547 1549 1550 1550 1551 1551 1551 1552 1552 1552 1552 1551 1551 1551 1551 1550 1550 1550 1549 1549 1549 1548 1548 1548
1512 1505 1508 1513 1524 1533 1527 1543 1525 1519 1517 1516 1516 1518 1520 1522 1525 1528 1531 1534 1536 1538 1541 1543 1545 1546 1548 1549 1550 1550 1551 1551 1552 1552 1551 1551 1551 1551 1550 1550 1550 1549 1549 1548 1548 1547 1547 1546 1546
1505 1503 1509 1515 1525 1535 1533 1540 1531 1520 1519 1513 1511 1513 1515 1518 1521 1525 1528 1531 1534 1537 1539 1541 1543 1545 1547 1548 1549 1550 1550 1551 1551 1551 1551 1551 1551 1550 1550 1549 1549 1548 1548 1547 1546 1546 1545 1544 1544
1501 1509 1517 1526 1534 1546 1536 1541 1535 1521 1512 1507 1506 1508 1511 1514 1518 1522 1525 1529 1532 1535 1537 1539 1542 1544 1545 1547 1548 1549 1550 1550 1550 1551 1551 1551 1550 1550 1549 1549 1548 1547 1546 1546 1545 1544 1543 1543 1542
1503 1522 1545 1548 1556 1552 1537 1538 1530 1507 1503 1501 1502 1504 1507 1511 1514 1518 1522 1525 1529 1532 1535 1537 1540 1542 1544 1545 1547 1548 1549 1549 1550 1550 1550 1550 1550 1549 1549 1548 1547 1546 1545 1544 1544 1543 1542 1541 1540
1505 1515 1541 1554 1557 1551 1538 1538 1516 1500 1497 1497 1498 1501 1504 1507 1511 1515 1519 1522 1526 1529 1532 1535 1538 1540 1542 1544 1545 1547 1548 1548 1549 1549 1549 1549 1549 1548 1548 1547 1546 1545 1544 1543 1542 1541 1540 1539 1538
1507 1514 1517 1538 1545 1550 1543 1529 1509 1497 1496 1496 1498 1499 1501 1504 1508 1512 1516 1520 1523 1526 1530 1533 1536 1538 1541 1543 1544 1545 1547 1547 1548 1548 1548 1548 1548 1547 1547 1546 1545 1544 1543 1542 1541 1540 1539 1538 1537
1497 1508 1524 1538 1552 1553 1541 1532 1522 1503 1498 1497 1497 1498 1499 1502 1505 1509 1513 1517 1521 1524 1528 1531 1534 1537 1539 1542 1543 1544 1546 1546 1547 1547 1547 1547 1547 1546 1546 1545 1544 1543 1542 1542 1541 1539 1538 1538 1537
1503 1511 1521 1533 1535 1550 1549 1534 1501 1497 1495 1495 1495 1496 1497 1499 1503 1507 1510 1515 1519 1523 1526 1529 1532 1535 1538 1540 1542 1544 1545 1545 1546 1546 1546 1546 1546 1546 1545 1544 1543 1542 1542 1541 1540 1539 1538 1537 1536
1492 1502 1513 1527 1536 1539 1540 1528 1491 1491 1491 1492 1493 1494 1496 1498 1501 1505 1509 1513 1517 1520 1524 1527 1531 1533 1536 1539 1541 1542 1544 1544 1545 1545 1545 1545 1545 1545 1544 1544 1543 1542 1541 1540 1540 1539 1538 1537 1536